www.pogodaiklimat.ru

Погода и климат >> Архив погоды >> Россия >> Кировская область >> Кирс


ПОГОДА в Кирсе

  • Прогноз погоды в Кирсе
  • Монитор погоды в Кирсе

АРХИВ ПОГОДЫ в Кирсе

Время (UTC), дата Ветер
(напр.,м/с)
 
Видим.   Явления Облачность Т
(С)
Тd
(С)
f
(%)
Тe
(С)
Тes
(С)
Комфортность P
(гПа)
Po
(гПа)
Тmin
(С)
Tmax
(С)
R
(мм)
R24
(мм)
S
(см)
12 13.01 Ю 4-7
{8}
4200 м слаб. снег {метель} 8/0
[As trans]
-10.2 -12.2 85 -17 -17 993.4 971.9
15 13.01 ЮЗ 3-6
{8}
4000 м слаб. снег {метель} 10/0
[As trans]
-11.3 -13.3 85 -17 -17 995.0 973.3 -9.5 0.2
18 13.01 ЮЗ 4-6
{8}
10 км слаб. снег {метель} 10/6 300 м
[Frnb As trans]
-11.8 -14.5 80 -19 -19 996.0 974.2
21 13.01 Ю 3-5
{7}
10 км слаб. снег {метель} 10/4 300 м
[Frnb As trans]
-11.9 -13.9 85 -18 -18 997.2 975.4
00 14.01 Ю 3-5
{6}
4000 м слаб. снег {метель} 10/0
[As trans]
-11.4 -13.4 85 -17 -17 997.9 976.9
03 14.01 Ю 3-6
{6}
4000 м слаб. снег 10/0
[As op]
-10.9 -12.9 85 -17 -17 998.7 977.0 -11.9 0.2 38
06 14.01 Ю 3-5
{6}
4200 м слаб. снег 10/0
[As op]
-10.7 -12.7 85 -17 -17 1000.1 978.3
09 14.01 ЮЗ 2-4
{5}
12 км {снег} 10/0
[Ac As]
-9.5 -12.1 81 -14 -14 1000.9 979.3
12 14.01 Ю 2-3
{5}
20 км {снег} 10/10 600 м
[Sc]
-8.3 -10.6 83 -13 -13 1002.0 980.5
15 14.01 Ю 3-4
{5}
10 км слаб. ливневой снег 10/10 300 м
[Cb cap]
-7.8 -10.0 84 -14 -14 1002.5 981.0 -7.8 0.3
18 14.01 Ю 4-6
{7}
20 км {ливн. осадки} 10/10 600 м
[Sc]
-7.7 -9.9 84 -14 -14 1003.3 981.8
21 14.01 Ю 4-5
{7}
20 км 10/10 600 м
[Sc]
-8.1 -9.9 87 -15 -15 1003.6 982.1
00 15.01 Ю 3-5
{6}
10 км слаб. ливневой снег 10/10 300 м
[Cb cap]
-8.4 -10.3 86 -14 -14 1003.4 981.9
03 15.01 Ю 3-6
{7}
4000 м слаб. ливневой снег {метель} 10/10 300 м
[Cb cap]
-8.4 -10.3 86 -14 -14 1003.2 981.7 -8.4 0.4 37
06 15.01 Ю 4-7
{8}
4200 м слаб. ливневой снег {метель} 10/10 300 м
[Cb cap]
-8.1 -9.9 87 -15 -15 1004.1 982.5
09 15.01 Ю 5-9
{10}
20 км позёмок {ливн. осадки} 10/8 300 м
[Cb cap Ac und]
-7.3 -9.8 82 -15 -15 1004.6 983.0
12 15.01 Ю 4-6
{9}
5000 м слаб. ливневой снег {метель} 10/10 300 м
[Cb cap]
-7.5 -9.7 84 -14 -14 1004.6 983.0
15 15.01 Ю 3-6
{7}
20 км позёмок {ливн. осадки} 10/10 300 м
[Cb cap]
-7.7 -9.5 87 -13 -13 1004.9 983.3 -7.3 0.4
18 15.01 Ю 3-7
{8}
4000 м слаб. ливневой снег {метель} 10/10 300 м
[Cb cap]
-7.8 -9.6 87 -14 -14 1004.6 983.0
21 15.01 Ю 3-6
{7}
4000 м слаб. ливневой снег {метель} 10/10 300 м
[Cb cap]
-7.4 -9.1 88 -13 -13 1004.6 983.0
00 16.01 Ю 2-3
{6}
4000 м слаб. ливневой снег {метель} 10/10 300 м
[Cb cap]
-7.1 -9.2 85 -12 -12 1004.5 983.0
03 16.01 Ю 4-6
{7}
4000 м слаб. ливневой снег {метель} 10/10 300 м
[Cb cap]
-5.4 -6.8 90 -12 -12 1004.4 983.0 -8.0 0.3 37
06 16.01 Ю 4-7
{7}
6000 м позёмок {ливн. осадки} 10/10 300 м
[Cb cap]
-3.4 -4.5 92 -10 -10 1006.2 985.0
09 16.01 Ю 3-6
{7}
6000 м позёмок 10/10 300 м
[Cb cap]
-2.2 -3.1 94 -7 -7 1006.2 985.0
12 16.01 ЮВ 3-6
{7}
3800 м слаб. ливневой снег {метель} 10/10 300 м
[Cb cap]
-2.2 -3.1 94 -7 -7 1003.2 982.1
15 16.01 ЮВ 4-8
{10}
4000 м слаб. ливневой снег {метель} 10/10 300 м
[Cb cap]
-2.6 -3.9 91 -9 -9 1000.4 979.3 -2.0 1
18 16.01 Ю 5-12
{13}
4000 м слаб. ливневой снег {метель} 10/10 300 м
[Cb cap]
-2.4 -5.3 80 -9 -9 996.8 975.9
21 16.01 Ю 6-12
{13}
2000 м ливневой снег {метель} 10/10 300 м
[Cb cap]
-3.2 -5.0 87 -11 -11 995.6 974.6
00 17.01 Ю 5-9
{13}
4000 м слаб. ливневой снег {метель} 10/10 300 м
[Cb cap]
-3.4 -5.5 85 -10 -10 995.9 974.9
03 17.01 Ю 4-7
{9}
4000 м слаб. ливневой снег {метель} 10/10 300 м
[Cb cap]
-3.8 -5.3 89 -10 -10 996.3 975.3 -4.0 3 42
06 17.01 ЮЗ 2-4
{7}
8000 м слаб. ливневой снег {метель} 10/10 300 м
[Cb cap]
-3.9 -5.1 91 -8 -8 998.5 977.4 -4.2
09 17.01 З 4-6
{10}
5000 м слаб. ливневой снег {метель} 10/6 300 м
[Cb cap As op]
-5.4 -9.2 75 -12 -12 1000.6 979.3
12 17.01 ЮЗ 4-8
{9}
14 км слаб. ливневой снег {метель} 10/6 300 м
[Cb cap As op]
-6.8 -10.6 74 -13 -13 1001.9 980.5
15 17.01 ЮЗ 4-7
{8}
10 км слаб. снег {метель} 10/0
[As op]
-6.7 -9.1 83 -13 -13 1002.7 981.3 -3.8 0.2
18 17.01 ЮЗ 5-9
{9}
10 км слаб. снег 10/0
[As op]
-6.7 -9.1 83 -14 -14 1002.8 981.4
21 17.01 Ю 5-8
{10}
10 км слаб. снег {метель} 10/0
[As op]
-6.9 -9.4 82 -14 -14 1002.4 981.0
00 18.01 Ю 5-9
{11}
4000 м слаб. снег {метель} 10/10 300 м
[Frnb Ns]
-7.0 -9.5 82 -14 -14 999.7 978.3
03 18.01 Ю 5-8
{10}
4000 м слаб. снег {метель} 10/10 300 м
[Frnb Ns]
-7.0 -9.1 85 -14 -14 996.8 975.5 -7.1 1 42
06 18.01 Ю 6-12
{12}
2400 м снег {метель} 10/10 300 м
[Frnb Ns]
-7.0 -9.1 85 -15 -15 995.9 974.6
09 18.01 Ю 5-11
{12}
2600 м снег {метель} 10/10 300 м
[Frnb Ns]
-6.5 -8.1 88 -14 -14 994.8 973.5
12 18.01 ЮЗ 5-9
{12}
12 км метель {снег} 10/0
[Ac As]
-3.6 -5.0 90 -11 -11 996.0 975.0
15 18.01 ЮЗ 5-7
{10}
10 км слаб. ливневой снег {метель} 10/10 300 м
[Cb cap]
-2.6 -3.9 91 -9 -9 998.2 977.3 -2.6 2
18 18.01 ЮЗ 5-8
{10}
10 км слаб. ливневой снег {метель} 10/10 300 м
[Cb cap]
-2.2 -3.4 91 -9 -9 999.0 977.9
21 18.01 Ю 5-8
{10}
10 км слаб. ливневой снег {метель} 10/10 300 м
[Cb cap]
-1.3 -3.0 88 -8 -8 999.9 978.9
00 19.01 Ю 6-9
{11}
10 км слаб. ливневой снег {метель} 10/10 300 м
[Cb cap]
-1.0 -2.6 89 -8 -8 1000.1 979.1
03 19.01 Ю 5-6
{11}
10 км слаб. ливневой снег {метель} 10/10 300 м
[Cb cap]
-2.2 -3.1 94 -9 -9 999.2 978.1 -2.6 0.2 42
06 19.01 Ю 5-8
{10}
1000 м ливневой снег {метель} 10/10 300 м
[Cb cap]
-3.2 -4.2 93 -10 -10 996.9 975.9 -3.2
09 19.01 ЮЗ 4-7
{9}
4200 м слаб. ливневой снег {метель} 10/10 300 м
[Cb cap]
-2.3 -3.2 94 -8 -8 996.8 975.9
12 19.01 ЮЗ 3-7
{7}
4000 м слаб. ливневой снег {метель} 10/10 300 м
[Cb cap]
-1.5 -2.9 90 -7 -7 999.2 978.2
15 19.01 З 3-6
{9}
20 км позёмок {ливн. осадки} 9/9 300 м
[Cb cap]
-5.2 -7.7 83 -11 -11 1003.1 981.8 -1.2 3
18 19.01 ЮЗ 2-3
{9}
20 км {ливн. осадки, метель} 3/3 1000 м
[Sc]
-9.6 -11.7 85 -14 -14 1006.2 984.5
21 19.01 штиль 0
{3}
20 км 3/0
[As trans]
-15.5 -16.8 90 -16 -16 1007.8 985.5
00 20.01 ЮЗ 3-4
{5}
10 км слаб. снег 10/0
[As trans]
-10.3 -12.3 85 -16 -16 1007.3 985.5
03 20.01 Ю 2-4
{5}
10 км слаб. снег 10/0
[As trans]
-10.5 -12.5 85 -15 -15 1007.9 986.1 -16.0 0.0 45
06 20.01 Ю 1-2
{4}
5000 м слаб. снег 9/0
[Ac As]
-10.9 -12.2 90 -13 -13 1008.6 986.7

 

Местоположение метеостанции Кирс (Кировская область, Россия): широта 59.35 долгота 52.25 высота над уровнем моря 169 м.

В архиве по умолчанию представлена погода в Кирсе за последнюю неделю. Архивные данные за месяц целиком и за предыдущие месяцы, начиная с января 2011 года, Вы можете получить, выбрав интересующий диапазон дат из раскрывающегося списка и нажав кнопку "Ввод!".


*Определитесь, кто Вы:
робот инопланетянин человек

Внимание! Время в таблицах - всемирное. Для получения местного времени необходимо прибавить поправку, которая равна 3 ч.

Смотрите также архив погоды в соседних городах и на ближайших метеорологических станциях:

Погода в Нагорске (Кировская область, Россия) (81 км)
Погода в Белой Холунице (Кировская область, Россия) (99 км)
Погода в Фаленках (Кировская область, Россия) (118 км)
Погода в Усть-Черной (Пермский край, Россия) (126 км)
Погода в Кочево (Пермский край, Россия) (128 км)
Погода в Глазове (Удмуртия, Россия) (137 км)
Погода в Кудымкаре (Пермский край, Россия) (142 км)
Погода в Койгородке (Коми, Россия) (142 км)
Погода в Гайнах (Пермский край, Россия) (156 км)
Погода в Косе (Пермский край, Россия) (168 км)

Пояснения к столбцам:

Ветер - указаны скорость ветра в м/с - средняя за 10 мин, порывы в срок и между сроками (в фигурных скобках) и направление, откуда дует ветер: С - северный, СВ - северо-восточный, В - восточный, ЮВ - юго-восточный, Ю - южный, ЮЗ - юго-западный, З - западный, СЗ - северо-западный.
Видимость - горизонтальная дальность видимости в метрах или километрах. При видимости от 1 до 10 км при отсутствии осадков обычно наблюдается дымка, при ухудшении видимости до 1 км и менее - туман. В сухую погоду видимость может ухудшаться дымом, пылью или мглою.
Явления - указаны атмосферные явления, наблюдавшиеся в срок или в последний час перед сроком; фигурными скобками обозначены явления, наблюдавшиеся между сроками (за 1-3 часа до срока); квадратными скобками обозначены град или гололедные отложения с указанием их диаметра в мм.
Облачность - указаны через наклонную черту общая и нижняя облачность в баллах и высота нижней границы облаков в метрах; квадратными скобками обозначены формы облаков: Ci - перистые, Cs - перисто-слоистые, Cc - перисто-кучевые, Ac - высококучевые, As - высокослоистые, Sc - слоисто-кучевые, Ns - слоисто-дождевые, Cu - кучевые, Cb - кучево-дождевые. Подробнее классификацию облаков см. в Атласе облаков (PDF).
T - Температура воздуха - температура, измеренная на высоте 2 м над землей.
Td - Температура точки росы - температура, при понижении до которой содержащийся в воздухе водяной пар достигнет насыщения.
f - Относительная влажность воздуха - влажноcть воздуха, измеренная на высоте 2 м над землей.
Te - Эффективная температура - температура, которую ощущает одетый по сезону человек в тени. Характеристика душности погоды. При расчете учитывается влияние влажности воздуха и скорости ветра на теплоощущения человека.
Tes - Эффективная температура на солнце - температура, которую ощущает человек, с поправкой на солнечный нагрев. Характеристика знойности погоды. Зависит от высоты солнца над горизонтом, облачности и скорости ветра. Ночью, в пасмурную погоду, а также при ветре 12 м/с и более поправка равна нулю.
P - Атмосферное давление - приведенное к уровню моря атмосферное давление.
Po - Атмосферное давление - измеренное на уровне метеостанции атмосферное давление.
Tmin - Минимальная температура - минимум температуры воздуха на высоте 2 м над землей.
Tmax - Максимальная температура - максимум температуры воздуха на высоте 2 м над землей.
R - Количество осадков - Количество выпавших осадков за период времени, мм. При наведении курсора мыши на число - период времени, за который выпало указанное количество осадков.
R24 - Количество осадков - Количество выпавших осадков за 24 часа, мм.
S - Снежный покров - Высота снежного покрова, см. При наведении курсора мыши на число - состояние снежного покрова и степень покрытия местности в баллах.